Flag for Germany Weather past 2 weeks in Kreuztal, North Rhine-Westphalia, Germany

Now
61 °F

Passing clouds.


Feels Like: 61 °F
Forecast: 51 / 76 °F
Wind: 6 mph from Northwest

Location: Hessen

Current Time: Jul 25, 2014 at 11:31:58 PM

Latest Report: Jul 25, 2014 at 9:50 PM


Visibility: N/A

Pressure: 29.95 "Hg

Humidity: 83%

Dew point: 55 °F

Location of KreuztalLocation

Historic Weather in Kreuztal — Graph

°F

Kreuztal temperature yesterday

Maximum temperature yesterday: 72 °F (at 1:50 PM)
Minimum temperature yesterday: 57 °F (at 8:20 PM)
Average temperature yesterday: 66 °F

Past Weeks' High & Low Weather Summary

 TemperatureHumidityPressure
High82 °F (Jul 19, 2:50 PM)100% (Jul 10, 9:20 PM)30.24 "Hg (Jul 10, 9:20 PM)
Low55 °F (Jul 14, 7:50 AM)42% (Jul 19, 3:50 PM)29.80 "Hg (Jul 13, 2:50 PM)
Average68 °F73%30.02 "Hg
* Reported Jul 10 9:20 PM — Jul 25 9:50 PM, Kreuztal, Weather by CustomWeather, © 2014

Note: Actual official high and low records may vary slightly from our data, if they occured in-between our weather recording intervals... More about our weather records

Advertising

Kreuztal weather history for previous 24 hours

 ConditionsComfort  
Time TempWeatherWind HumidityBarometerVisibility
9:50 PM
Jul 25
61 °FPassing clouds.6 mph83%29.95 "HgN/A
9:20 PM63 °FScattered clouds.5 mph77%29.95 "HgN/A
8:50 PM63 °FScattered showers. Scattered clouds.7 mph83%29.95 "HgN/A
8:20 PM64 °FScattered clouds.5 mph78%29.95 "HgN/A
7:50 PM66 °FScattered showers. Partly sunny.2 mph73%29.95 "HgN/A
7:20 PM68 °FScattered clouds.3 mph64%29.95 "HgN/A
6:50 PM68 °FBroken clouds.5 mph69%29.95 "HgN/A
6:20 PM68 °FBroken clouds.6 mph69%29.95 "HgN/A
5:50 PM68 °FScattered clouds.2 mph64%29.95 "HgN/A
5:20 PM68 °FScattered clouds.1 mph64%29.95 "HgN/A
4:50 PM70 °FScattered clouds.3 mph60%29.95 "HgN/A
4:20 PM68 °FScattered clouds.7 mph64%29.95 "HgN/A
3:50 PM66 °FScattered clouds.6 mph68%29.95 "HgN/A
3:20 PM66 °FScattered clouds.5 mph68%29.95 "HgN/A
2:50 PM66 °FScattered clouds.6 mph68%29.98 "HgN/A
2:20 PM66 °FScattered clouds.5 mph68%29.98 "HgN/A
1:50 PM66 °FScattered clouds.7 mph73%29.98 "HgN/A
1:20 PM64 °FPartly sunny.7 mph73%29.98 "HgN/A
12:50 PM63 °FBroken clouds.7 mph77%29.98 "HgN/A
12:20 PM63 °FBroken clouds.7 mph83%29.98 "HgN/A
11:50 AM63 °FBroken clouds.7 mph83%30.01 "HgN/A
11:20 AM63 °FBroken clouds.6 mph83%29.98 "HgN/A
10:50 AM59 °FBroken clouds.7 mph94%30.01 "HgN/A
10:20 AM59 °FPartly sunny.6 mph94%30.01 "HgN/A
9:50 AM59 °FPartly sunny.6 mph94%29.98 "HgN/A
9:20 AM57 °FMostly cloudy.9 mph94%29.98 "HgN/A
8:50 AM57 °FMostly cloudy.7 mph100%29.98 "HgN/A
8:20 AM57 °FMostly cloudy.8 mph94%29.98 "Hg4 mi
7:50 AM55 °FMostly cloudy.8 mph100%29.98 "Hg4 mi
Weather by CustomWeather, © 2014

See weather overviewHow to use our weather pages